FW3671 Weather Reports


Display with metric or nautical units.
time (UTC)temp
F
wind
direction
speed
MPH
gust
MPH
rain 1hr
in
rain 24hr
in
rain mn
in
humidity
%
barometer
mb
20240620225009 85 288 11.0 17.0 0.00 0.00 0.00 22 1013.8
20240620224506 85 312 10.0 17.0 0.00 0.00 0.00 23 1013.9
20240620224007 85 298 11.0 16.0 0.00 0.00 0.00 22 1013.9
20240620223505 86 266 12.0 16.0 0.00 0.00 0.00 22 1013.9
20240620223008 86 269 6.0 18.0 0.00 0.00 0.00 22 1013.9
20240620222505 86 5 9.0 19.0 0.00 0.00 0.00 22 1014.0
20240620222007 86 332 9.0 19.0 0.00 0.00 0.00 22 1014.1
20240620221501 86 252 11.0 17.0 0.00 0.00 0.00 22 1014.1
20240620221005 87 301 11.0 17.0 0.00 0.00 0.00 20 1014.1
20240620220506 88 303 7.0 12.0 0.00 0.00 0.00 19 1014.1
20240620220018 88 184 5.0 11.0 0.00 0.00 0.00 16 1014.2
20240620215503 88 252 8.0 12.0 0.00 0.00 0.00 21 1014.2
20240620214005 87 121 7.0 12.0 0.00 0.00 0.00 21 1014.3
20240620213505 86 90 4.0 8.0 0.00 0.00 0.00 23 1014.6
20240620213007 85 340 3.0 10.0 0.00 0.00 0.00 23 1014.5
20240620212504 85 61 4.0 10.0 0.00 0.00 0.00 23 1014.7
20240620212006 85 32 3.0 10.0 0.00 0.00 0.00 22 1014.8
20240620211507 85 105 2.0 8.0 0.00 0.00 0.00 24 1014.9
20240620210959 84 292 3.0 14.0 0.00 0.00 0.00 24 1015.1
20240620210503 84 338 3.0 16.0 0.00 0.00 0.00 23 1015.1
20240620210009 84 9 8.0 16.0 0.00 0.00 0.00 23 1015.2
20240620205504 84 311 6.0 10.0 0.00 0.00 0.00 24 1015.3
20240620204504 83 34 7.0 14.0 0.00 0.00 0.00 24 1015.4
20240620204001 83 12 9.0 14.0 0.00 0.00 0.00 23 1015.5
20240620203508 83 151 7.0 12.0 0.00 0.00 0.00 25 1015.5
20240620203001 83 292 8.0 13.0 0.00 0.00 0.00 24 1015.5
20240620202503 83 5 9.0 13.0 0.00 0.00 0.00 23 1015.5
20240620202003 83 348 7.0 11.0 0.00 0.00 0.00 23 1015.5
20240620201508 82 22 6.0 13.0 0.00 0.00 0.00 24 1015.6
20240620201003 82 342 4.0 13.0 0.00 0.00 0.00 23 1015.6
20240620200502 82 338 4.0 11.0 0.00 0.00 0.00 23 1015.7
20240620200008 82 5 5.0 11.0 0.00 0.00 0.00 23 1015.9
20240620195503 82 9 3.0 10.0 0.00 0.00 0.00 25 1016.0
20240620194510 81 46 5.0 10.0 0.00 0.00 0.00 24 1016.1
20240620194006 81 304 5.0 10.0 0.00 0.00 0.00 23 1016.2
20240620193500 81 288 4.0 8.0 0.00 0.00 0.00 25 1016.2
20240620193000 81 254 3.0 10.0 0.00 0.00 0.00 22 1016.3
20240620191959 80 305 2.0 11.0 0.00 0.00 0.00 25 1016.3
20240620191458 80 13 6.0 11.0 0.00 0.00 0.00 25 1016.3
20240620191001 80 340 7.0 11.0 0.00 0.00 0.00 23 1016.3
20240620190504 80 337 2.0 9.0 0.00 0.00 0.00 22 1016.4
20240620190006 80 5 5.0 9.0 0.00 0.00 0.00 22 1016.4
20240620185507 79 346 3.0 8.0 0.00 0.00 0.00 26 1016.5
20240620185006 79 319 4.0 9.0 0.00 0.00 0.00 23 1016.5
20240620184508 79 18 2.0 9.0 0.00 0.00 0.00 20 1016.6
20240620184003 78 355 4.0 8.0 0.00 0.00 0.00 24 1016.6
20240620183504 78 333 1.0 10.0 0.00 0.00 0.00 25 1016.6
20240620183002 78 342 5.0 10.0 0.00 0.00 0.00 24 1016.6
20240620182503 78 306 5.0 9.0 0.00 0.00 0.00 24 1016.7
20240620182006 78 273 2.0 8.0 0.00 0.00 0.00 23 1016.7
20240620181506 77 200 3.0 6.0 0.00 0.00 0.00 21 1016.7
20240620181003 77 312 2.0 8.0 0.00 0.00 0.00 22 1016.8
20240620180501 77 5 4.0 8.0 0.00 0.00 0.00 23 1016.8
20240620180004 77 42 1.0 6.0 0.00 0.00 0.00 25 1016.8
20240620175005 76 211 2.0 9.0 0.00 0.00 0.00 23 1016.9
20240620174001 76 223 4.0 7.0 0.00 0.00 0.00 26 1016.9
20240620173503 76 25 2.0 7.0 0.00 0.00 0.00 28 1016.9
20240620172500 75 302 0.0 7.0 0.00 0.00 0.00 31 1016.9
20240620172000 75 332 3.0 7.0 0.00 0.00 0.00 34 1016.9
20240620171507 75 321 2.0 4.0 0.00 0.00 0.00 32 1016.9
20240620171004 75 269 1.0 3.0 0.00 0.00 0.00 33 1016.8
20240620170504 74 25 2.0 4.0 0.00 0.00 0.00 33 1016.9
20240620170008 74 32 2.0 4.0 0.00 0.00 0.00 34 1016.8
20240620165507 73 348 2.0 4.0 0.00 0.00 0.00 35 1016.9
20240620165006 73 28 2.0 3.0 0.00 0.00 0.00 36 1016.9
20240620164003 73 229 1.0 5.0 0.00 0.00 0.00 37 1016.8
20240620163502 73 9 2.0 5.0 0.00 0.00 0.00 36 1016.8
20240620163007 72 279 2.0 5.0 0.00 0.00 0.00 38 1016.8
20240620162502 72 325 1.0 6.0 0.00 0.00 0.00 38 1016.8
20240620160502 72 17 2.0 4.0 0.00 0.00 0.00 37 1016.9
20240620155504 71 204 1.0 2.0 0.00 0.00 0.00 39 1017.0
20240620154506 70 293 1.0 4.0 0.00 0.00 0.00 39 1017.0
20240620153504 69 342 3.0 5.0 0.00 0.00 0.00 43 1017.1
20240620153003 69 9 2.0 4.0 0.00 0.00 0.00 42 1017.0
20240620152501 69 278 2.0 4.0 0.00 0.00 0.00 41 1017.0
20240620151459 68 298 1.0 4.0 0.00 0.00 0.00 43 1017.0
20240620150958 68 330 2.0 4.0 0.00 0.00 0.00 43 1017.0
20240620150504 68 274 0.0 4.0 0.00 0.00 0.00 44 1017.0
20240620145958 68 279 2.0 3.0 0.00 0.00 0.00 44 1017.0
20240620145006 67 276 0.0 3.0 0.00 0.00 0.00 43 1017.1
20240620144503 67 276 1.0 2.0 0.00 0.00 0.00 43 1017.1
20240620144003 66 276 0.0 0.0 0.00 0.00 0.00 43 1017.1
20240620143500 65 276 0.0 0.0 0.00 0.00 0.00 42 1017.1
20240620143006 65 275 0.0 1.0 0.00 0.00 0.00 44 1017.1
20240620142502 64 224 0.0 4.0 0.00 0.00 0.00 44 1017.1
20240620142000 64 224 1.0 4.0 0.00 0.00 0.00 44 1017.1
20240620141458 64 250 1.0 3.0 0.00 0.00 0.00 44 1017.1
20240620141004 63 244 2.0 4.0 0.00 0.00 0.00 44 1017.1
20240620140507 63 211 1.0 4.0 0.00 0.00 0.00 45 1017.0
20240620135504 61 225 2.0 3.0 0.00 0.00 0.00 45 1017.0
20240620135003 61 183 0.0 2.0 0.00 0.00 0.00 45 1017.0
20240620134458 60 167 0.0 0.0 0.00 0.00 0.00 45 1016.9
20240620134003 60 167 0.0 0.0 0.00 0.00 0.00 44 1016.9
20240620133505 59 167 0.0 0.0 0.00 0.00 0.00 52 1016.9
20240620133005 59 167 0.0 1.0 0.00 0.00 0.00 50 1016.8
20240620132506 59 167 0.0 3.0 0.00 0.00 0.00 49 1016.9
20240620131507 59 168 3.0 5.0 0.00 0.00 0.00 47 1016.8
20240620131004 59 123 4.0 6.0 0.00 0.00 0.00 47 1016.8
20240620130501 59 125 3.0 5.0 0.00 0.00 0.00 47 1016.8
20240620130005 59 146 2.0 3.0 0.00 0.00 0.00 46 1016.8
20240620125504 59 145 2.0 3.0 0.00 0.00 0.00 44 1016.7
20240620125004 59 170 1.0 2.0 0.00 0.00 0.00 43 1016.7
20240620124504 59 296 1.0 4.0 0.00 0.00 0.00 39 1016.7
20240620124005 58 332 1.0 7.0 0.00 0.00 0.00 39 1016.6
20240620123504 58 214 3.0 7.0 0.00 0.00 0.00 43 1016.6
20240620123003 58 132 4.0 8.0 0.00 0.00 0.00 43 1016.5
20240620122501 58 126 5.0 9.0 0.00 0.00 0.00 43 1016.5
20240620122000 58 127 7.0 9.0 0.00 0.00 0.00 42 1016.5
20240620121500 58 136 5.0 8.0 0.00 0.00 0.00 43 1016.6
20240620121000 58 146 6.0 8.0 0.00 0.00 0.00 44 1016.6
20240620120500 58 142 5.0 8.0 0.00 0.00 0.00 44 1016.5
20240620120009 58 136 4.0 8.0 0.00 0.00 0.00 44 1016.4
20240620115504 58 130 5.0 8.0 0.00 0.00 0.00 43 1016.4
20240620115003 58 139 5.0 7.0 0.00 0.00 0.00 42 1016.5
20240620114502 58 144 5.0 7.0 0.00 0.00 0.00 42 1016.3
20240620114001 59 147 3.0 5.0 0.00 0.00 0.00 42 1016.4
20240620113501 59 136 4.0 5.0 0.00 0.00 0.00 42 1016.4
20240620113006 59 135 1.0 8.0 0.00 0.00 0.00 42 1016.4
20240620112503 59 140 5.0 8.0 0.00 0.00 0.00 42 1016.4
20240620111959 59 131 5.0 7.0 0.00 0.00 0.00 42 1016.2
20240620111503 59 137 5.0 8.0 0.00 0.00 0.00 40 1016.2
20240620110004 59 121 7.0 11.0 0.00 0.00 0.00 40 1016.1
20240620105501 59 134 8.0 11.0 0.00 0.00 0.00 39 1016.1
20240620104959 59 129 6.0 11.0 0.00 0.00 0.00 38 1016.1
20240620104459 59 127 7.0 9.0 0.00 0.00 0.00 39 1016.0
20240620104007 59 149 6.0 9.0 0.00 0.00 0.00 39 1016.1
20240620103505 60 121 7.0 9.0 0.00 0.00 0.00 39 1016.0
20240620103006 59 132 6.0 11.0 0.00 0.00 0.00 39 1016.0
20240620102500 59 142 7.0 12.0 0.00 0.00 0.00 37 1015.9
20240620101959 59 133 9.0 12.0 0.00 0.00 0.00 37 1015.9
20240620101459 59 136 10.0 12.0 0.00 0.00 0.00 39 1016.0
20240620101006 59 127 6.0 10.0 0.00 0.00 0.00 39 1016.0
20240620100504 59 134 8.0 10.0 0.00 0.00 0.00 39 1016.0
20240620095459 59 138 7.0 9.0 0.00 0.00 0.00 39 1015.9
20240620095002 59 128 6.0 9.0 0.00 0.00 0.00 38 1015.9
20240620094004 59 127 5.0 8.0 0.00 0.00 0.00 40 1015.8
20240620093504 59 138 5.0 8.0 0.00 0.00 0.00 40 1015.8
20240620092959 59 150 5.0 8.0 0.00 0.00 0.00 41 1015.9
20240620092508 59 145 5.0 8.0 0.00 0.00 0.00 41 1015.8
20240620092000 59 128 6.0 8.0 0.00 0.00 0.00 39 1016.0
20240620091005 59 144 5.0 8.0 0.00 0.00 0.00 40 1016.0
20240620090506 60 140 5.0 8.0 0.00 0.00 0.00 40 1016.0
20240620085504 60 123 7.0 10.0 0.00 0.00 0.00 36 1016.0
20240620085003 60 150 6.0 10.0 0.00 0.00 0.00 36 1015.9
20240620084503 60 156 8.0 10.0 0.00 0.00 0.00 36 1015.8
20240620083458 60 139 8.0 11.0 0.00 0.00 0.00 35 1015.8
20240620083006 60 133 7.0 11.0 0.00 0.00 0.00 35 1015.8
20240620082459 60 124 8.0 12.0 0.00 0.00 0.00 36 1015.8
20240620081959 60 142 9.0 13.0 0.00 0.00 0.00 36 1015.8
20240620081506 60 144 10.0 13.0 0.00 0.00 0.00 37 1015.8
20240620081006 60 144 10.0 13.0 0.00 0.00 0.00 35 1015.9
20240620080506 60 128 8.0 12.0 0.00 0.00 0.00 34 1015.9
20240620074957 61 119 8.0 11.0 0.00 0.00 0.00 33 1015.9
20240620074459 61 133 8.0 10.0 0.00 0.00 0.00 34 1016.0
20240620073959 61 129 8.0 10.0 0.00 0.00 0.00 34 1015.9
20240620073459 61 140 7.0 11.0 0.00 0.00 0.00 34 1016.0
20240620072959 61 138 8.0 11.0 0.00 0.00 0.00 34 1016.0
20240620072505 61 134 9.0 11.0 0.00 0.00 0.00 34 1016.0
20240620072004 61 135 9.0 11.0 0.00 0.00 0.00 34 1015.9
20240620071456 61 140 9.0 12.0 0.00 0.00 0.00 34 1016.0
20240620071005 61 126 9.0 12.0 0.00 0.00 0.00 34 1015.9
20240620070456 61 141 10.0 13.0 0.00 0.00 0.00 34 1015.9
20240620070006 61 130 10.0 13.0 0.00 0.00 0.00 34 1016.0
20240620065458 61 159 10.0 13.0 0.00 0.00 0.00 34 1016.0
20240620064959 61 129 10.0 12.0 0.00 0.00 0.00 34 1016.0
20240620064458 61 137 9.0 11.0 0.00 0.00 0.00 35 1016.1
20240620064007 61 130 9.0 11.0 0.00 0.00 0.00 36 1016.1
20240620063505 61 130 8.0 9.0 0.00 0.00 0.00 37 1016.1
20240620063004 61 148 7.0 9.0 0.00 0.00 0.00 36 1016.1
20240620062500 61 133 6.0 9.0 0.00 0.00 0.00 36 1016.2
20240620061504 61 132 6.0 10.0 0.00 0.00 0.00 36 1016.3
20240620061008 61 128 7.0 10.0 0.00 0.00 0.00 37 1016.4
20240620060502 61 134 7.0 9.0 0.00 0.00 0.00 37 1016.3
20240620060007 61 134 7.0 10.0 0.00 0.00 0.00 36 1016.3
20240620055459 61 129 7.0 10.0 0.00 0.00 0.00 37 1016.3
20240620055007 61 118 8.0 10.0 0.00 0.00 0.00 37 1016.3
20240620054508 61 131 8.0 10.0 0.00 0.00 0.00 37 1016.3
20240620053459 61 132 8.0 10.0 0.00 0.00 0.00 37 1016.3
20240620053007 62 134 8.0 10.0 0.00 0.00 0.00 37 1016.4
20240620052504 62 141 9.0 11.0 0.00 0.00 0.00 36 1016.4
20240620052003 62 150 8.0 11.0 0.00 0.00 0.00 37 1016.4
20240620051509 63 128 7.0 11.0 0.00 0.00 0.00 36 1016.4
20240620050506 63 126 8.0 10.0 0.00 0.00 0.00 35 1016.5
20240620050005 64 123 8.0 10.0 0.00 0.00 0.00 35 1016.4
20240620045501 64 126 8.0 10.0 0.00 0.00 0.00 35 1016.5
20240620045002 65 136 8.0 10.0 0.00 0.00 0.00 34 1016.5
20240620044501 65 123 4.0 8.0 0.00 0.00 0.00 36 1016.5
20240620043503 66 198 3.0 4.0 0.00 0.00 0.00 34 1016.4
20240620043001 66 182 4.0 4.0 0.00 0.00 0.00 34 1016.4
20240620042509 67 0.0 0.0 0.00 0.00 0.00 33 1016.5
20240620042007 67 0.0 0.0 0.00 0.00 0.00 33 1016.4
20240620041501 67 0.0 0.0 0.00 0.00 0.00 31 1016.5
20240620041007 67 0.0 0.0 0.00 0.00 0.00 32 1016.4
20240620040506 67 0.0 0.0 0.00 0.00 0.00 30 1016.5
20240620040004 67 0.0 0.0 0.00 0.00 0.00 33 1016.5
20240620035509 67 0.0 0.0 0.00 0.00 0.00 33 1016.5
20240620035009 67 0.0 0.0 0.00 0.00 0.00 33 1016.4
20240620034504 67 0.0 0.0 0.00 0.00 0.00 32 1016.4
20240620034008 68 0.0 0.0 0.00 0.00 0.00 32 1016.4
20240620033503 68 0.0 0.0 0.00 0.00 0.00 31 1016.4
20240620033000 68 0.0 0.0 0.00 0.00 0.00 32 1016.3
20240620032507 68 0.0 0.0 0.00 0.00 0.00 32 1016.2
20240620032008 68 0.0 0.0 0.00 0.00 0.00 32 1016.2
20240620031507 69 0.0 0.0 0.00 0.00 0.00 31 1016.2
20240620031006 69 0.0 0.0 0.00 0.00 0.00 31 1016.2
20240620030508 69 0.0 0.0 0.00 0.00 0.00 30 1016.1
20240620025507 70 0.0 0.0 0.00 0.00 0.00 29 1016.2
20240620025006 70 0.0 0.0 0.00 0.00 0.00 29 1016.1
20240620024500 70 0.0 0.0 0.00 0.00 0.00 29 1016.1
20240620024002 71 0.0 0.0 0.00 0.00 0.00 28 1016.1
20240620023506 71 0.0 0.0 0.00 0.00 0.00 28 1016.2
20240620023007 72 0.0 0.0 0.00 0.00 0.00 29 1016.2
20240620022506 72 0.0 0.0 0.00 0.00 0.00 27 1016.1
20240620022006 72 0.0 0.0 0.00 0.00 0.00 28 1016.1
20240620021458 71 0.0 0.0 0.00 0.00 0.00 28 1016.1
20240620021001 71 0.0 0.0 0.00 0.00 0.00 28 1016.0
20240620020508 71 0.0 0.0 0.00 0.00 0.00 27 1016.1
20240620015501 71 0.0 0.0 0.00 0.00 0.00 27 1015.9
20240620014506 72 0.0 0.0 0.00 0.00 0.00 27 1016.0
20240620014007 72 0.0 0.0 0.00 0.00 0.00 26 1016.0
20240620013504 71 0.0 0.0 0.00 0.00 0.00 28 1016.0
20240620013000 71 0.0 0.0 0.00 0.00 0.00 28 1016.0
20240620012459 71 0.0 0.0 0.00 0.00 0.00 27 1015.9
20240620012001 71 0.0 0.0 0.00 0.00 0.00 27 1015.9
20240620011459 71 340 3.0 6.0 0.00 0.00 0.00 25 1015.8
20240620011007 72 340 3.0 6.0 0.00 0.00 0.00 26 1015.9
20240620010505 72 35 3.0 8.0 0.00 0.00 0.00 26 1015.8
20240620010009 72 349 2.0 10.0 0.00 0.00 0.00 26 1015.8
20240620005001 72 344 3.0 10.0 0.00 0.00 0.00 25 1015.8
20240620004507 72 23 4.0 10.0 0.00 0.00 0.00 26 1015.8
20240620004004 72 360 6.0 10.0 0.00 0.00 0.00 25 1015.8
20240620003506 72 306 5.0 10.0 0.00 0.00 0.00 25 1015.6
20240620003005 72 349 5.0 11.0 0.00 0.00 0.00 25 1015.8
20240620002503 72 347 7.0 12.0 0.00 0.00 0.00 25 1015.7
20240620002004 72 360 7.0 13.0 0.00 0.00 0.00 24 1015.7
20240620001502 72 355 7.0 13.0 0.00 0.00 0.00 24 1015.7
20240620001003 72 5 9.0 13.0 0.00 0.00 0.00 23 1015.6
20240620000502 72 284 6.0 13.0 0.00 0.00 0.00 24 1015.7
20240620000007 72 98 7.0 13.0 0.00 0.00 0.00 23 1015.6
20240619235503 72 340 6.0 13.0 0.00 0.00 0.00 24 1015.5
20240619235007 72 350 9.0 13.0 0.00 0.00 0.00 24 1015.6
20240619234507 72 328 7.0 13.0 0.00 0.00 0.00 23 1015.7
20240619234008 72 355 6.0 10.0 0.00 0.00 0.00 25 1015.8
20240619233503 72 21 5.0 10.0 0.00 0.00 0.00 25 1015.9
20240619233001 72 348 6.0 13.0 0.00 0.00 0.00 24 1015.9
20240619232505 72 360 7.0 13.0 0.00 0.00 0.00 23 1016.0
20240619232002 72 306 6.0 11.0 0.00 0.00 0.00 24 1016.0
20240619231508 72 336 7.0 11.0 0.00 0.00 0.00 25 1016.0
20240619231007 72 351 5.0 11.0 0.00 0.00 0.00 23 1016.1
20240619230459 72 330 5.0 13.0 0.00 0.00 0.00 26 1016.1
20240619230004 72 319 8.0 13.0 0.00 0.00 0.00 23 1016.1
20240619225507 72 348 5.0 10.0 0.00 0.00 0.00 27 1016.0